User: anonymous   Login
Location: Unspecified
(0.0000°N, 0.0000°E)
Time: 21:44:33
(UTC+00:00)
Language:

P76-5 - Orbit

View from above orbital plane
View from above orbital plane
View from above satellite
View from above satellite

Ground track
Ground track

The orbit data is extracted from the following two-line orbital elements,

1  8860U 76047A   17086.93469524 +.00000015 +00000-0 +71045-4 0  9997
2  8860 099.6663 196.1872 0041160 298.2472 171.2600 13.67539973035922
Epoch (UTC): 27 March 2017 22:25:57
Eccentricity: 0.0041160
inclination: 99.6663°
perigee height: 978 km
apogee height: 1039 km
right ascension of ascending node: 196.1872°
argument of perigee: 298.2472°
revolutions per day: 13.67539973
mean anomaly at epoch: 171.2600°
orbit number at epoch: 3592

The dashed part of the orbit path shows where the satellite is in the earth's shadow,  

DLR